TimeEST,TemperatureF,Dew PointF,Humidity,Sea Level PressureIn,VisibilityMPH,Wind Direction,Wind SpeedMPH,Gust SpeedMPH,PrecipitationIn,Events,Conditions,WindDirDegrees,DateUTC
12:55 AM,32.0,30.2,93,29.50,5.0,NNW,12.7,20.7,0.31,Snow,Light Snow,330,2012-12-30 05:55:00
1:15 AM,32.0,28.4,87,29.51,7.0,NNW,13.8,20.7,0.10,Snow,Light Snow,330,2012-12-30 06:15:00
1:35 AM,32.0,28.4,87,29.52,6.0,NNW,12.7,20.7,0.15,Snow,Light Snow,340,2012-12-30 06:35:00
1:55 AM,32.0,26.6,80,29.53,9.0,NNW,12.7,23.0,0.17,Snow,Light Snow,330,2012-12-30 06:55:00
2:15 AM,32.0,26.6,80,29.53,8.0,NNW,12.7,19.6,N/A,Snow,Light Snow,330,2012-12-30 07:15:00
2:35 AM,32.0,26.6,80,29.54,8.0,NNW,13.8,23.0,0.03,Rain,Rain,330,2012-12-30 07:35:00
2:55 AM,32.0,26.6,80,29.55,10.0,NNW,13.8,19.6,0.09,Rain,Rain,330,2012-12-30 07:55:00
3:15 AM,32.0,26.6,80,29.55,10.0,NNW,16.1,23.0,0.02,Rain,Rain,330,2012-12-30 08:15:00
3:35 AM,32.0,26.6,80,29.56,10.0,NW,10.4,16.1,0.04,,Drizzle,320,2012-12-30 08:35:00
3:55 AM,32.0,26.6,80,29.56,10.0,NW,11.5,16.1,0.07,,Drizzle,320,2012-12-30 08:55:00
4:15 AM,32.0,26.6,80,29.57,10.0,NNW,10.4,-,0.01,,Drizzle,330,2012-12-30 09:15:00
4:35 AM,32.0,26.6,80,29.58,8.0,NW,6.9,-,0.02,,Drizzle,320,2012-12-30 09:35:00
4:55 AM,32.0,24.8,75,29.59,8.0,NW,18.4,27.6,0.04,Rain,Rain,320,2012-12-30 09:55:00
5:15 AM,32.0,23.0,69,29.61,10.0,NW,12.7,25.3,0.01,,Light Drizzle,320,2012-12-30 10:15:00
5:35 AM,30.2,23.0,75,29.62,9.0,NW,11.5,25.3,0.04,Rain,Freezing Rain,320,2012-12-30 10:35:00
5:55 AM,30.2,23.0,75,29.64,10.0,NNW,10.4,18.4,0.05,,Overcast,340,2012-12-30 10:55:00
6:15 AM,30.2,21.2,69,29.66,7.0,NNW,15.0,26.5,N/A,Snow,Light Snow,340,2012-12-30 11:15:00
6:35 AM,28.4,19.4,69,29.67,6.0,NNW,13.8,24.2,N/A,Snow,Light Snow,340,2012-12-30 11:35:00
6:55 AM,28.4,19.4,69,29.68,7.0,NNW,10.4,23.0,N/A,,Freezing Rain,330,2012-12-30 11:55:00
7:15 AM,28.4,19.4,69,29.69,10.0,NNW,9.2,-,N/A,,Clear,340,2012-12-30 12:15:00
7:35 AM,28.4,19.4,69,29.70,10.0,NNW,11.5,20.7,N/A,,Freezing Rain,330,2012-12-30 12:35:00
7:55 AM,28.4,19.4,69,29.71,10.0,NNW,11.5,18.4,N/A,,Freezing Rain,340,2012-12-30 12:55:00
8:15 AM,28.4,17.6,64,29.73,5.0,NNW,12.7,26.5,N/A,Snow,Light Snow,340,2012-12-30 13:15:00
8:35 AM,28.4,17.6,64,29.75,10.0,NNW,6.9,18.4,N/A,,Clear,340,2012-12-30 13:35:00
8:55 AM,28.4,17.6,64,29.76,10.0,NNW,8.1,21.9,N/A,Snow,Light Snow,330,2012-12-30 13:55:00
9:15 AM,28.4,17.6,64,29.77,10.0,NNW,11.5,19.6,N/A,,Freezing Rain,330,2012-12-30 14:15:00
9:35 AM,30.2,17.6,60,29.78,5.0,NNW,11.5,24.2,N/A,Snow,Light Snow,340,2012-12-30 14:35:00
9:55 AM,30.2,17.6,60,29.78,5.0,NW,19.6,31.1,N/A,Snow,Light Snow,320,2012-12-30 14:55:00
10:15 AM,30.2,17.6,60,29.78,8.0,NW,17.3,26.5,N/A,Snow,Light Snow,320,2012-12-30 15:15:00
10:35 AM,28.4,17.6,64,29.78,4.0,NW,23.0,32.2,N/A,Snow,Light Snow,310,2012-12-30 15:35:00
10:55 AM,28.4,17.6,64,29.78,2.5,NNW,15.0,34.5,0.01,Snow,Light Snow,330,2012-12-30 15:55:00
11:15 AM,30.2,17.6,60,29.78,3.0,NW,18.4,38.0,N/A,Snow,Light Snow,320,2012-12-30 16:15:00
11:35 AM,30.2,17.6,60,29.78,3.0,NW,18.4,29.9,0.01,Snow,Light Snow,320,2012-12-30 16:35:00
11:55 AM,30.2,17.6,60,29.78,5.0,NW,15.0,28.8,0.03,Rain,Freezing Rain,320,2012-12-30 16:55:00
12:15 PM,32.0,17.6,55,29.78,10.0,NW,17.3,28.8,N/A,,Clear,320,2012-12-30 17:15:00
12:35 PM,32.0,17.6,55,29.78,10.0,NW,10.4,20.7,N/A,,Clear,320,2012-12-30 17:35:00
12:55 PM,32.0,17.6,55,29.78,3.0,NNW,19.6,28.8,N/A,,Haze,330,2012-12-30 17:55:00
1:35 PM,33.8,14.0,44,29.79,7.0,NW,17.3,31.1,N/A,,Clear,310,2012-12-30 18:35:00
1:55 PM,33.8,14.0,44,29.80,10.0,NW,10.4,24.2,N/A,,Clear,320,2012-12-30 18:55:00
2:15 PM,33.8,14.0,44,29.80,8.0,NNW,16.1,41.4,N/A,,Light Drizzle,330,2012-12-30 19:15:00
2:35 PM,33.8,14.0,44,29.82,9.0,NNW,12.7,21.9,N/A,,Clear,330,2012-12-30 19:35:00
2:55 PM,32.0,12.2,44,29.84,10.0,NW,13.8,25.3,N/A,,Clear,310,2012-12-30 19:55:00
3:15 PM,32.0,12.2,44,29.85,10.0,NW,16.1,32.2,N/A,,Clear,320,2012-12-30 20:15:00
3:35 PM,32.0,10.4,41,29.86,9.0,NW,21.9,29.9,N/A,,Clear,310,2012-12-30 20:35:00
3:55 PM,32.0,10.4,41,29.88,10.0,NW,15.0,24.2,N/A,,Clear,310,2012-12-30 20:55:00
4:15 PM,32.0,8.6,38,29.90,10.0,NW,12.7,24.2,N/A,,Clear,320,2012-12-30 21:15:00
4:35 PM,30.2,10.4,44,29.91,10.0,NW,13.8,20.7,N/A,,Clear,310,2012-12-30 21:35:00
4:55 PM,30.2,8.6,40,29.92,10.0,NW,12.7,25.3,N/A,,Clear,320,2012-12-30 21:55:00
5:15 PM,30.2,8.6,40,29.94,10.0,NW,18.4,28.8,N/A,,Clear,310,2012-12-30 22:15:00
5:35 PM,30.2,8.6,40,29.95,10.0,NW,13.8,31.1,N/A,,Clear,320,2012-12-30 22:35:00
5:55 PM,30.2,10.4,44,29.96,10.0,NNW,15.0,25.3,N/A,,Clear,330,2012-12-30 22:55:00
6:15 PM,30.2,10.4,44,29.98,10.0,NNW,13.8,25.3,N/A,,Clear,330,2012-12-30 23:15:00
6:35 PM,28.4,10.4,47,29.98,8.0,NW,17.3,29.9,N/A,,Clear,320,2012-12-30 23:35:00
6:55 PM,28.4,10.4,47,29.99,9.0,NNW,18.4,27.6,N/A,,Clear,330,2012-12-30 23:55:00
7:15 PM,28.4,12.2,51,30.00,10.0,NW,21.9,32.2,N/A,,Clear,320,2012-12-31 00:15:00
7:35 PM,28.4,12.2,51,30.00,10.0,NNW,20.7,27.6,N/A,,Clear,330,2012-12-31 00:35:00
7:55 PM,28.4,12.2,51,30.01,10.0,NNW,18.4,32.2,N/A,,Clear,340,2012-12-31 00:55:00
8:15 PM,28.4,12.2,51,30.01,10.0,NNW,13.8,25.3,N/A,,Clear,330,2012-12-31 01:15:00
8:35 PM,28.4,12.2,51,30.01,10.0,NNW,11.5,16.1,N/A,,Clear,330,2012-12-31 01:35:00
8:55 PM,28.4,10.4,47,30.01,10.0,NNW,13.8,25.3,N/A,,Clear,330,2012-12-31 01:55:00
9:35 PM,26.6,10.4,51,30.03,10.0,NNW,15.0,24.2,N/A,,Clear,330,2012-12-31 02:35:00
9:55 PM,26.6,10.4,51,30.04,10.0,NW,12.7,21.9,N/A,,Clear,320,2012-12-31 02:55:00
10:15 PM,26.6,10.4,51,30.05,10.0,NW,9.2,18.4,N/A,,Clear,320,2012-12-31 03:15:00
10:35 PM,26.6,10.4,51,30.04,10.0,NNW,10.4,18.4,N/A,,Clear,330,2012-12-31 03:35:00
10:55 PM,26.6,10.4,51,30.05,10.0,NW,11.5,18.4,N/A,,Clear,320,2012-12-31 03:55:00
11:15 PM,26.6,10.4,51,30.05,10.0,NNW,11.5,26.5,N/A,,Clear,330,2012-12-31 04:15:00
11:35 PM,26.6,10.4,51,30.05,10.0,NNW,13.8,23.0,N/A,,Clear,330,2012-12-31 04:35:00
11:55 PM,26.6,10.4,51,30.05,10.0,NW,12.7,19.6,N/A,,Clear,320,2012-12-31 04:55:00